DW9097 Weather Reports


time (UTC)temp
C
wind
direction
speed
KPH
gust
KPH
rain 1hr
cm
rain 24hr
cm
rain mn
cm
humidity
%
barometer
mb
20260504081842 18 216 6.4 9.7 0.00 0.00 0.00 54 939.2
20260504081532 18 237 3.2 14.5 0.00 0.00 0.00 55 1019.3
20260504081351 18 228 1.6 14.5 0.00 0.00 0.00 54 1019.2
20260504081340 -17 195 0.0 0.0 0.00 0.00 0.00 939.1
20260504081223 18 268 1.6 11.3 0.00 0.00 0.00 55 1019.3
20260504081147 18 227 3.2 11.3 0.00 0.00 0.00 54 1019.3
20260504081100 17 231 0.0 11.3 0.00 0.00 0.00 58 939.1
20260504080948 17 231 0.0 11.3 0.00 0.00 0.00 58 939.1
20260504080836 18 237 1.6 20.9 0.00 0.00 0.00 55 1019.3
20260504080353 17 254 6.4 20.9 0.00 0.00 0.00 56 1019.3
20260504080334 17 254 6.4 17.7 0.00 0.00 0.00 58 939.1
20260504080320 17 210 3.2 20.9 0.00 0.00 0.00 58 1019.3
20260504070333 16 223 9.7 14.5 0.00 0.00 0.00 64 939.1
20260504070211 16 269 4.8 17.7 0.00 0.00 0.00 65 1019.2
20260504070201 16 172 4.8 17.7 0.00 0.00 0.00 65 1019.1
20260504070125 16 268 6.4 17.7 0.00 0.00 0.00 64 1019.1
20260504050450 8 265 0.0 0.0 0.00 0.00 0.00 88 1018.6
20260504050346 8 265 0.0 0.0 0.00 0.00 0.00 88 1018.7
20260504050301 7 266 0.0 0.0 0.00 0.00 0.00 88 938.5
20260504045947 8 266 0.0 0.0 0.00 0.00 0.00 88 1018.6
20260504045844 8 265 0.0 0.0 0.00 0.00 0.00 88 1018.6
20260504045814 7 265 0.0 0.0 0.00 0.00 0.00 88 938.4
20260504045448 7 265 0.0 0.0 0.00 0.00 0.00 88 1018.7
20260504045346 7 265 0.0 0.0 0.00 0.00 0.00 88 1018.6
20260504045300 7 265 0.0 0.0 0.00 0.00 0.00 88 938.5
20260504045028 7 265 0.0 0.0 0.00 0.00 0.00 87 938.4
20260504044949 7 265 0.0 0.0 0.00 0.00 0.00 88 1018.6
20260504044845 7 265 0.0 0.0 0.00 0.00 0.00 88 1018.6
20260504044801 7 265 0.0 0.0 0.00 0.00 0.00 87 938.4
20260504044534 7 266 0.0 0.0 0.00 0.00 0.00 86 938.4
20260504044448 7 266 0.0 0.0 0.00 0.00 0.00 87 1018.6
20260504044345 7 265 0.0 0.0 0.00 0.00 0.00 87 1018.6
20260504044300 7 266 0.0 0.0 0.00 0.00 0.00 86 938.4
20260504044030 7 265 0.0 0.0 0.00 0.00 0.00 86 938.3
20260504043944 7 266 0.0 0.0 0.00 0.00 0.00 87 1018.6
20260504043847 7 265 0.0 0.0 0.00 0.00 0.00 87 1018.5
20260504043759 7 265 0.0 0.0 0.00 0.00 0.00 86 938.3
20260504043507 7 266 0.0 0.0 0.00 0.00 0.00 87 1018.5
20260504043501 7 265 0.0 0.0 0.00 0.00 0.00 87 1018.5
20260504043452 7 265 0.0 0.0 0.00 0.00 0.00 87 1018.5
20260504043419 7 266 0.0 0.0 0.00 0.00 0.00 87 1018.4
20260504043259 -17 266 0.0 0.0 0.00 0.00 0.00 938.3
20260504043019 -17 265 0.0 0.0 0.00 0.00 0.00 938.3
20260504042907 -17 265 0.0 0.0 0.00 0.00 0.00 938.3
20260504042750 7 265 0.0 0.0 0.00 0.00 0.00 87 1018.5
20260504042344 7 265 0.0 0.0 0.00 0.00 0.00 86 1018.5
20260504042259 7 265 0.0 0.0 0.00 0.00 0.00 86 938.3
20260504042212 7 265 0.0 0.0 0.00 0.00 0.00 86 1018.4
20260504042120 7 265 0.0 0.0 0.00 0.00 0.00 86 1018.5
20260504041800 7 265 0.0 0.0 0.00 0.00 0.00 86 938.2
20260504041736 7 266 0.0 0.0 0.00 0.00 0.00 86 1018.5
20260504041344 7 266 0.0 0.0 0.00 0.00 0.00 86 1018.4
20260504041301 7 266 0.0 0.0 0.00 0.00 0.00 86 938.3
20260504040944 7 266 0.0 0.0 0.00 0.00 0.00 86 1018.4
20260504040846 7 265 0.0 0.0 0.00 0.00 0.00 86 1018.4
20260504040759 7 265 0.0 0.0 0.00 0.00 0.00 86 1018.4
20260504040405 7 265 0.0 0.0 0.00 0.00 0.00 87 938.2
20260504040347 7 265 0.0 0.0 0.00 0.00 0.00 86 1018.4
20260504035944 7 265 0.0 0.0 0.00 0.00 0.00 86 1018.4
20260504035847 7 265 0.0 0.0 0.00 0.00 0.00 86 1018.3
20260504035801 7 265 0.0 0.0 0.00 0.00 0.00 87 938.1
20260504035444 7 265 0.0 0.0 0.00 0.00 0.00 86 1018.3
20260504035344 7 266 0.0 0.0 0.00 0.00 0.00 86 1018.3
20260504035258 -17 265 0.0 0.0 0.00 0.00 0.00 938.1
20260504034945 7 265 0.0 0.0 0.00 0.00 0.00 87 1018.3
20260504034845 7 266 0.0 0.0 0.00 0.00 0.00 87 1018.3
20260504034759 7 266 0.0 0.0 0.00 0.00 0.00 87 938.1
20260504034739 7 266 0.0 0.0 0.00 0.00 0.00 87 1018.2
20260504034344 7 265 0.0 0.0 0.00 0.00 0.00 87 1018.2
20260504034300 7 265 0.0 0.0 0.00 0.00 0.00 87 938.1
20260504034158 7 266 0.0 0.0 0.00 0.00 0.00 87 1018.2
20260504034111 7 265 0.0 0.0 0.00 0.00 0.00 87 1018.2
20260504034024 7 266 0.0 0.0 0.00 0.00 0.00 86 938.1
20260504033758 7 266 0.0 0.0 0.00 0.00 0.00 86 938.1
20260504033443 7 264 0.0 0.0 0.00 0.00 0.00 86 1018.2
20260504033343 7 265 0.0 0.0 0.00 0.00 0.00 86 1018.3
20260504033257 -17 265 0.0 0.0 0.00 0.00 0.00 938.2
20260504033205 7 265 0.0 0.0 0.00 0.00 0.00 87 1018.3
20260504033114 7 266 0.0 0.0 0.00 0.00 0.00 86 1018.3
20260504032759 7 265 0.0 0.0 0.00 0.00 0.00 87 938.2
20260504032441 7 265 0.0 0.0 0.00 0.00 0.00 87 1018.4
20260504032344 7 265 0.0 0.0 0.00 0.00 0.00 87 1018.4
20260504032259 7 265 0.0 0.0 0.00 0.00 0.00 87 938.2
20260504032244 7 266 0.0 0.0 0.00 0.00 0.00 87 1018.4
20260504031844 7 265 0.0 0.0 0.00 0.00 0.00 87 1018.4
20260504031758 7 265 0.0 0.0 0.00 0.00 0.00 87 938.3
20260504031742 7 265 0.0 0.0 0.00 0.00 0.00 87 1018.4
20260504031527 7 265 0.0 0.0 0.00 0.00 0.00 87 938.3
20260504031344 7 265 0.0 0.0 0.00 0.00 0.00 87 1018.5
20260504031259 7 265 0.0 0.0 0.00 0.00 0.00 87 938.3
20260504031025 7 265 0.0 0.0 0.00 0.00 0.00 87 938.3
20260504031007 7 265 0.0 0.0 0.00 0.00 0.00 87 1018.4
20260504030945 7 265 0.0 0.0 0.00 0.00 0.00 87 1018.4
20260504030758 7 265 0.0 0.0 0.00 0.00 0.00 87 938.3
20260504030628 7 265 0.0 0.0 0.00 0.00 0.00 87 1018.4
20260504030256 7 265 0.0 0.0 0.00 0.00 0.00 87 938.3
20260504025942 7 265 0.0 0.0 0.00 0.00 0.00 87 1018.4
20260504025844 7 266 0.0 0.0 0.00 0.00 0.00 87 1018.5
20260504025800 7 265 0.0 0.0 0.00 0.00 0.00 87 938.3
20260504025441 7 266 0.0 0.0 0.00 0.00 0.00 87 1018.5
20260504025344 7 265 0.0 0.0 0.00 0.00 0.00 86 1018.5
20260504025258 7 265 0.0 0.0 0.00 0.00 0.00 87 938.3
20260504025026 -17 266 0.0 0.0 0.00 0.00 0.00 938.3
20260504024944 7 266 0.0 0.0 0.00 0.00 0.00 87 1018.5
20260504024842 7 265 0.0 0.0 0.00 0.00 0.00 87 1018.5
20260504024755 -17 266 0.0 0.0 0.00 0.00 0.00 938.3
20260504024442 7 265 0.0 0.0 0.00 0.00 0.00 87 1018.4
20260504024342 7 265 0.0 0.0 0.00 0.00 0.00 87 1018.5
20260504024259 7 265 0.0 0.0 0.00 0.00 0.00 87 938.4
20260504023941 7 265 0.0 0.0 0.00 0.00 0.00 87 1018.5
20260504023843 7 264 0.0 0.0 0.00 0.00 0.00 87 1018.6
20260504023758 7 266 0.0 0.0 0.00 0.00 0.00 87 938.4
20260504023443 7 265 0.0 0.0 0.00 0.00 0.00 87 1018.5
20260504023342 7 265 0.0 0.0 0.00 0.00 0.00 87 1018.6
20260504023257 7 265 0.0 0.0 0.00 0.00 0.00 87 938.4
20260504023036 7 265 0.0 0.0 0.00 0.00 0.00 87 938.4
20260504022934 7 265 0.0 0.0 0.00 0.00 0.00 87 1018.6
20260504022843 7 265 0.0 0.0 0.00 0.00 0.00 87 1018.6
20260504022759 7 265 0.0 0.0 0.00 0.00 0.00 87 938.4
20260504022434 7 265 0.0 0.0 0.00 0.00 0.00 87 1018.6
20260504022342 7 266 0.0 0.0 0.00 0.00 0.00 87 1018.6
20260504022258 7 265 0.0 0.0 0.00 0.00 0.00 87 938.4
20260504021933 7 266 0.0 0.0 0.00 0.00 0.00 87 1018.4
20260504021905 7 265 0.0 0.0 0.00 0.00 0.00 87 938.3
20260504021843 7 265 0.0 0.0 0.00 0.00 0.00 87 1018.4
20260504021520 -17 264 0.0 0.0 0.00 0.00 0.00 938.3
20260504021434 7 265 0.0 0.0 0.00 0.00 0.00 87 1018.5
20260504021403 -17 264 0.0 0.0 0.00 0.00 0.00 938.3
20260504021342 7 265 0.0 0.0 0.00 0.00 0.00 87 1018.5
20260504020932 7 265 0.0 0.0 0.00 0.00 0.00 87 1018.4
20260504020843 7 265 0.0 0.0 0.00 0.00 0.00 87 1018.4
20260504020757 7 265 0.0 0.0 0.00 0.00 0.00 87 938.3
20260504020517 7 265 0.0 0.0 0.00 0.00 0.00 87 938.3
20260504020434 7 266 0.0 0.0 0.00 0.00 0.00 87 1018.5
20260504020403 7 265 0.0 0.0 0.00 0.00 0.00 87 938.3
20260504020341 7 264 0.0 0.0 0.00 0.00 0.00 87 1018.5
20260504015933 7 266 0.0 0.0 0.00 0.00 0.00 87 1018.4
20260504015842 7 265 0.0 0.0 0.00 0.00 0.00 87 1018.4
20260504015758 7 265 0.0 0.0 0.00 0.00 0.00 87 938.3
20260504015739 7 266 0.0 0.0 0.00 0.00 0.00 87 1018.5
20260504015520 7 266 0.0 0.0 0.00 0.00 0.00 87 938.3
20260504015342 7 265 0.0 0.0 0.00 0.00 0.00 87 1018.5
20260504015256 7 266 0.0 0.0 0.00 0.00 0.00 87 938.3
20260504014932 7 265 0.0 0.0 0.00 0.00 0.00 87 1018.5
20260504014844 7 265 0.0 0.0 0.00 0.00 0.00 87 1018.5
20260504014756 7 266 0.0 0.0 0.00 0.00 0.00 86 938.3
20260504014436 7 265 0.0 0.0 0.00 0.00 0.00 87 1018.5
20260504014342 7 265 0.0 0.0 0.00 0.00 0.00 87 1018.5
20260504014258 7 266 0.0 0.0 0.00 0.00 0.00 86 938.2
20260504014220 7 266 0.0 0.0 0.00 0.00 0.00 86 1018.5
20260504014016 7 266 0.0 0.0 0.00 0.00 0.00 86 938.2
20260504013904 7 266 0.0 0.0 0.00 0.00 0.00 86 938.2
20260504013841 7 265 0.0 0.0 0.00 0.00 0.00 86 1018.5
20260504013433 7 265 0.0 0.0 0.00 0.00 0.00 86 1018.3
20260504013342 7 265 0.0 0.0 0.00 0.00 0.00 86 1018.3
20260504013255 7 265 0.0 0.0 0.00 0.00 0.00 86 938.1
20260504013015 7 266 0.0 0.0 0.00 0.00 0.00 86 938.2
20260504012933 7 266 0.0 0.0 0.00 0.00 0.00 86 1018.4
20260504012905 7 266 0.0 0.0 0.00 0.00 0.00 86 938.2
20260504012836 7 266 0.0 0.0 0.00 0.00 0.00 86 1018.4
20260504012434 7 266 0.0 0.0 0.00 0.00 0.00 86 1018.4
20260504012337 7 266 0.0 0.0 0.00 0.00 0.00 86 1018.4
20260504012256 7 265 0.0 0.0 0.00 0.00 0.00 86 938.3
20260504012016 7 265 0.0 0.0 0.00 0.00 0.00 86 938.3
20260504011933 7 266 0.0 0.0 0.00 0.00 0.00 86 1018.5
20260504011903 7 265 0.0 0.0 0.00 0.00 0.00 86 938.3
20260504011837 7 265 0.0 0.0 0.00 0.00 0.00 86 1018.4
20260504011435 7 266 0.0 0.0 0.00 0.00 0.00 86 1018.5
20260504011334 7 265 0.0 0.0 0.00 0.00 0.00 86 1018.4
20260504011257 7 265 0.0 0.0 0.00 0.00 0.00 86 938.3
20260504011218 7 265 0.0 0.0 0.00 0.00 0.00 86 1018.5
20260504010834 7 265 0.0 0.0 0.00 0.00 0.00 86 1018.5
20260504010755 7 266 0.0 0.0 0.00 0.00 0.00 86 938.3
20260504010527 -17 265 0.0 0.0 0.00 0.00 0.00 938.4
20260504010438 7 265 0.0 0.0 0.00 0.00 0.00 86 1018.4
20260504010338 7 265 0.0 0.0 0.00 0.00 0.00 86 1018.6
20260504010254 -17 265 0.0 0.0 0.00 0.00 0.00 938.4
20260504005933 7 265 0.0 0.0 0.00 0.00 0.00 86 1018.5
20260504005834 7 265 0.0 0.0 0.00 0.00 0.00 86 1018.5
20260504005757 7 265 0.0 0.0 0.00 0.00 0.00 86 938.4
20260504005740 7 266 0.0 0.0 0.00 0.00 0.00 86 1018.5
20260504005521 7 265 0.0 0.0 0.00 0.00 0.00 86 938.4
20260504005335 7 265 0.0 0.0 0.00 0.00 0.00 86 1018.5
20260504005255 7 265 0.0 0.0 0.00 0.00 0.00 86 938.4
20260504004932 7 266 0.0 0.0 0.00 0.00 0.00 86 1018.5
20260504004835 7 266 0.0 0.0 0.00 0.00 0.00 86 1018.6
20260504004754 -17 265 0.0 0.0 0.00 0.00 0.00 938.3
20260504004435 7 266 0.0 0.0 0.00 0.00 0.00 86 1018.5
20260504004334 7 268 0.0 0.0 0.00 0.00 0.00 86 1018.5
20260504004307 7 265 0.0 0.0 0.00 0.00 0.00 85 938.3
20260504004257 7 265 0.0 0.0 0.00 0.00 0.00 85 938.3
20260504004230 7 266 0.0 0.0 0.00 0.00 0.00 86 1018.5
20260504003835 7 266 0.0 0.0 0.00 0.00 0.00 86 1018.5
20260504003755 7 265 0.0 0.0 0.00 0.00 0.00 85 938.3
20260504003443 7 266 0.0 0.0 0.00 0.00 0.00 85 1018.5
20260504003333 7 266 0.0 0.0 0.00 0.00 0.00 85 1018.5
20260504003255 7 265 0.0 0.0 0.00 0.00 0.00 85 938.3
20260504003153 7 265 0.0 0.0 0.00 0.00 0.00 85 1018.6
20260504003106 7 265 0.0 0.0 0.00 0.00 0.00 85 1018.6
20260504003027 7 265 0.0 0.0 0.00 0.00 0.00 85 938.4
20260504002756 7 265 0.0 0.0 0.00 0.00 0.00 85 938.4
20260504002518 7 265 0.0 0.0 0.00 0.00 0.00 85 938.3
20260504002435 7 265 0.0 0.0 0.00 0.00 0.00 85 1018.6
20260504002400 7 265 0.0 0.0 0.00 0.00 0.00 85 938.3
20260504002335 7 265 0.0 0.0 0.00 0.00 0.00 85 1018.6
20260504001934 7 266 0.0 0.0 0.00 0.00 0.00 85 1018.6
20260504001834 7 265 0.0 0.0 0.00 0.00 0.00 85 1018.5
20260504001808 7 265 0.0 0.0 0.00 0.00 0.00 85 938.4
20260504001435 7 265 0.0 0.0 0.00 0.00 0.00 85 1018.6
20260504001334 7 265 0.0 0.0 0.00 0.00 0.00 85 1018.7
20260504001256 7 265 0.0 0.0 0.00 0.00 0.00 85 938.4
20260504000933 7 266 0.0 0.0 0.00 0.00 0.00 85 1018.6
20260504000833 8 266 0.0 0.0 0.00 0.00 0.00 85 1018.5
20260504000755 8 265 0.0 0.0 0.00 0.00 0.00 85 938.4
20260504000519 8 266 0.0 0.0 0.00 0.00 0.00 85 1018.6
20260504000455 8 266 0.0 0.0 0.00 0.00 0.00 85 1018.7
20260504000254 8 265 0.0 0.0 0.00 0.00 0.00 85 938.4
20260504000120 8 266 0.0 0.0 0.00 0.00 0.00 85 1018.7
20260503235828 8 265 0.0 0.0 0.00 0.00 0.00 85 1018.7
20260503235756 8 265 0.0 0.0 0.00 0.00 0.00 86 938.5
20260503235714 8 266 0.0 0.0 0.00 0.00 0.00 85 1018.7
20260503235252 -17 265 0.0 0.0 0.00 0.00 0.00 938.5
20260503235106 8 266 0.0 0.0 0.00 0.00 0.00 85 1018.8
20260503235017 -17 266 0.0 0.0 0.00 0.00 0.00 938.5
20260503234752 -17 266 0.0 0.0 0.00 0.00 0.00 938.5
20260503234653 8 265 0.0 0.0 0.00 0.00 0.00 86 1018.8
20260503234609 8 265 0.0 0.0 0.00 0.00 0.00 86 1018.8
20260503234514 -17 265 0.0 0.0 0.00 0.00 0.00 938.6
20260503234249 -17 265 0.0 0.0 0.00 0.00 0.00 938.6
20260503234147 8 266 0.0 0.0 0.00 0.00 0.00 86 1018.9
20260503234102 8 265 0.0 0.0 0.00 0.00 0.00 86 1018.9
20260503233747 8 265 0.0 0.0 0.00 0.00 0.00 85 938.8
20260503233435 8 265 0.0 0.0 0.00 0.00 0.00 85 1018.9
20260503233333 8 266 0.0 0.0 0.00 0.00 0.00 86 1019.0
20260503233247 8 265 0.0 0.0 0.00 0.00 0.00 85 938.8
20260503233015 -17 265 0.0 0.0 0.00 0.00 0.00 938.8
20260503232934 8 265 0.0 0.0 0.00 0.00 0.00 85 1019.0
20260503232834 8 265 0.0 0.0 0.00 0.00 0.00 85 1019.0
20260503232742 -17 265 0.0 0.0 0.00 0.00 0.00 938.8
20260503232509 8 265 0.0 0.0 0.00 0.00 0.00 85 938.9
20260503232435 8 265 0.0 0.0 0.00 0.00 0.00 85 1019.1
20260503232347 8 265 0.0 0.0 0.00 0.00 0.00 85 938.9
20260503232334 8 265 0.0 0.0 0.00 0.00 0.00 85 1019.0
20260503231933 8 265 0.0 0.0 0.00 0.00 0.00 85 1019.1
20260503231834 8 266 0.0 0.0 0.00 0.00 0.00 85 1019.1
20260503231736 8 265 0.0 0.0 0.00 0.00 0.00 85 938.8
20260503231701 8 265 0.0 0.0 0.00 0.00 0.00 85 1019.1
20260503231606 8 265 0.0 0.0 0.00 0.00 0.00 85 1019.1
20260503231235 -17 265 0.0 0.0 0.00 0.00 0.00 939.0
20260503230935 8 265 0.0 0.0 0.00 0.00 0.00 85 1019.1
20260503230835 8 266 0.0 0.0 0.00 0.00 0.00 85 1019.1
20260503230733 -17 0.0 0.0 0.00 0.00 0.00 939.0
20260503230504 -17 0.0 0.0 0.00 0.00 0.00 939.0
20260503230436 8 265 0.0 0.0 0.00 0.00 0.00 85 1019.1
20260503230335 8 266 0.0 0.0 0.00 0.00 0.00 85 1019.1
20260503230228 -17 0.0 0.0 0.00 0.00 0.00 939.0
20260503230046 -17 265 0.0 0.0 0.00 0.00 0.00 939.0
20260503225941 -17 265 0.0 0.0 0.00 0.00 0.00 939.0
20260503225906 9 265 0.0 0.0 0.00 0.00 0.00 85 1019.2
20260503225835 8 265 0.0 0.0 0.00 0.00 0.00 85 1019.2
20260503225444 8 265 0.0 0.0 0.00 0.00 0.00 85 939.0
20260503225410 8 266 0.0 0.0 0.00 0.00 0.00 85 1019.2
20260503225335 8 265 0.0 0.0 0.00 0.00 0.00 85 1019.2
20260503225322 8 265 0.0 0.0 0.00 0.00 0.00 85 939.0
20260503224907 8 265 0.0 0.0 0.00 0.00 0.00 85 1019.3
20260503224833 8 266 0.0 0.0 0.00 0.00 0.00 85 1019.1
20260503224717 8 265 0.0 0.0 0.00 0.00 0.00 85 939.0
20260503224409 8 265 0.0 0.0 0.00 0.00 0.00 85 1019.2
20260503224334 8 265 0.0 0.0 0.00 0.00 0.00 85 1019.2
20260503224217 8 266 0.0 0.0 0.00 0.00 0.00 84 939.0
20260503223907 8 265 0.0 0.0 0.00 0.00 0.00 85 1019.2
20260503223832 8 265 0.0 0.0 0.00 0.00 0.00 85 1019.2
20260503223718 8 265 0.0 0.0 0.00 0.00 0.00 84 938.9
20260503223409 8 268 0.0 0.0 0.00 0.00 0.00 85 1019.1
20260503223332 8 265 0.0 0.0 0.00 0.00 0.00 85 1019.2
20260503223216 8 265 0.0 0.0 0.00 0.00 0.00 84 939.0
20260503222952 8 265 0.0 0.0 0.00 0.00 0.00 84 1019.3
20260503222949 8 265 0.0 0.0 0.00 0.00 0.00 84 939.0
20260503222947 8 265 0.0 0.0 0.00 0.00 0.00 84 1019.3
20260503222927 8 265 0.0 0.0 0.00 0.00 0.00 85 1019.3
20260503222907 8 265 0.0 0.0 0.00 0.00 0.00 85 1019.2
20260503222716 8 265 0.0 0.0 0.00 0.00 0.00 84 939.0
20260503222215 8 266 0.0 0.0 0.00 0.00 0.00 84 1019.3
20260503221827 8 265 0.0 0.0 0.00 0.00 0.00 84 1019.3
20260503221714 -17 265 0.0 0.0 0.00 0.00 0.00 939.1
20260503221408 9 266 0.0 0.0 0.00 0.00 0.00 84 1019.3
20260503221326 9 266 0.0 0.0 0.00 0.00 0.00 84 1019.3
20260503221217 9 265 0.0 0.0 0.00 0.00 0.00 83 939.1
20260503221136 9 265 0.0 0.0 0.00 0.00 0.00 84 1019.5
20260503221052 9 266 0.0 0.0 0.00 0.00 0.00 84 1019.5
20260503220715 9 266 0.0 0.0 0.00 0.00 0.00 83 939.2
20260503220539 9 265 0.0 0.0 0.00 0.00 0.00 83 1019.5
20260503220459 9 265 0.0 0.0 0.00 0.00 0.00 84 1019.5
20260503220443 9 265 0.0 0.0 0.00 0.00 0.00 84 1019.3
20260503220212 -17 266 0.0 0.0 0.00 0.00 0.00 939.2
20260503215822 9 264 0.0 0.0 0.00 0.00 0.00 83 1019.5
20260503215722 9 265 0.0 0.0 0.00 0.00 0.00 82 939.2
20260503215402 9 266 0.0 0.0 0.00 0.00 0.00 83 1019.3
20260503215321 9 266 0.0 0.0 0.00 0.00 0.00 83 1019.3
20260503215215 9 265 0.0 0.0 0.00 0.00 0.00 82 939.1
20260503214858 9 265 0.0 0.0 0.00 0.00 0.00 83 1019.2
20260503214807 9 266 0.0 0.0 0.00 0.00 0.00 83 1019.2
20260503214714 9 265 0.0 0.0 0.00 0.00 0.00 82 939.1
20260503214357 10 265 0.0 0.0 0.00 0.00 0.00 82 1019.2
20260503214309 10 265 0.0 0.0 0.00 0.00 0.00 82 1019.3
20260503214215 10 266 0.0 0.0 0.00 0.00 0.00 82 939.1
20260503213856 10 266 0.0 0.0 0.00 0.00 0.00 82 1019.3
20260503213822 10 266 0.0 0.0 0.00 0.00 0.00 81 939.0
20260503213808 10 265 0.0 0.0 0.00 0.00 0.00 82 1019.2
20260503213357 10 266 0.0 0.0 0.00 0.00 0.00 82 1019.2
20260503213308 10 266 0.0 0.0 0.00 0.00 0.00 82 1019.1
20260503213215 10 265 0.0 0.0 0.00 0.00 0.00 81 938.9
20260503212859 10 265 0.0 0.0 0.00 0.00 0.00 81 1019.0
20260503212807 10 265 0.0 0.0 0.00 0.00 0.00 81 1019.1
20260503212716 10 265 0.0 0.0 0.00 0.00 0.00 81 938.9
20260503212355 10 266 0.0 0.0 0.00 0.00 0.00 81 1019.0
20260503212306 10 265 0.0 0.0 0.00 0.00 0.00 81 1019.0
20260503212214 10 265 0.0 0.0 0.00 0.00 0.00 81 938.9
20260503211941 11 265 0.0 0.0 0.00 0.00 0.00 80 938.8
20260503211850 10 266 0.0 0.0 0.00 0.00 0.00 81 1019.0
20260503211821 11 265 0.0 0.0 0.00 0.00 0.00 80 938.8
20260503211806 10 266 0.0 0.0 0.00 0.00 0.00 81 1019.0
20260503211519 10 265 0.0 0.0 0.00 0.00 0.00 80 1019.0
20260503211448 11 265 0.0 0.0 0.00 0.00 0.00 80 938.8
20260503211444 10 266 0.0 0.0 0.00 0.00 0.00 80 1018.9
20260503211420 10 266 0.0 0.0 0.00 0.00 0.00 80 1019.0
20260503211322 11 265 0.0 0.0 0.00 0.00 0.00 80 938.8
20260503210938 11 265 0.0 0.0 0.00 0.00 0.00 79 938.8
20260503210822 11 265 0.0 0.0 0.00 0.00 0.00 79 938.8
20260503210806 11 265 0.0 0.0 0.00 0.00 0.00 80 1018.9
20260503210620 11 265 0.0 0.0 0.00 0.00 0.00 80 1018.9
20260503210526 11 265 0.0 0.0 0.00 0.00 0.00 80 1018.9
20260503210244 11 265 0.0 0.0 0.00 0.00 0.00 79 1019.0
20260503210239 11 265 0.0 0.0 0.00 0.00 0.00 79 1019.0
20260503210233 11 265 0.0 0.0 0.00 0.00 0.00 79 1018.9
20260503210213 -17 265 0.0 0.0 0.00 0.00 0.00 938.8
20260503210129 11 266 0.0 0.0 0.00 0.00 0.00 79 1019.0
20260503205935 11 265 0.0 0.0 0.00 0.00 0.00 79 938.8
20260503205822 11 265 0.0 0.0 0.00 0.00 0.00 79 938.8
20260503205547 11 265 0.0 0.0 0.00 0.00 0.00 79 938.8
20260503204834 11 265 0.0 0.0 0.00 0.00 0.00 78 1019.0
20260503204806 11 266 0.0 0.0 0.00 0.00 0.00 78 1018.9
20260503204713 11 266 0.0 0.0 0.00 0.00 0.00 75 938.8
20260503204650 11 265 0.0 0.0 0.00 0.00 0.00 78 1019.0
20260503204306 11 265 0.0 0.0 0.00 0.00 0.00 78 1019.0
20260503204212 11 265 0.0 0.0 0.00 0.00 0.00 75 938.8
20260503203836 11 265 0.0 0.0 0.00 0.00 0.00 78 1019.0
20260503203804 11 265 0.0 0.0 0.00 0.00 0.00 77 1019.1
20260503203712 -17 265 0.0 0.0 0.00 0.00 0.00 938.9
20260503203644 11 266 0.0 0.0 0.00 0.00 0.00 77 1019.1
20260503203308 11 265 0.0 0.0 0.00 0.00 0.00 77 1019.1
20260503203206 -17 266 0.0 0.0 0.00 0.00 0.00 939.0
20260503202835 11 265 0.0 0.0 0.00 0.00 0.00 77 1019.1
20260503202805 11 266 0.0 0.0 0.00 0.00 0.00 77 1019.1
20260503202709 12 266 0.0 0.0 0.00 0.00 0.00 75 939.0
20260503202436 12 265 0.0 0.0 0.00 0.00 0.00 75 939.0
20260503202338 12 265 0.0 0.0 0.00 0.00 0.00 76 1019.1
20260503202309 12 266 0.0 0.0 0.00 0.00 0.00 76 1019.1
20260503202207 12 265 0.0 0.0 0.00 0.00 0.00 75 939.0
20260503201835 12 266 0.0 0.0 0.00 0.00 0.00 76 1019.1
20260503201805 12 268 0.0 0.0 0.00 0.00 0.00 75 1019.2
20260503201706 -17 265 0.0 0.0 0.00 0.00 0.00 939.0
20260503201336 12 266 0.0 0.0 0.00 0.00 0.00 75 1019.2
20260503201306 12 265 0.0 0.0 0.00 0.00 0.00 75 1019.1
20260503201205 12 266 0.0 0.0 0.00 0.00 0.00 75 938.9
20260503200807 12 265 0.0 0.0 0.00 0.00 0.00 75 1019.1
20260503200701 12 266 0.0 0.0 0.00 0.00 0.00 75 938.8
20260503200424 -17 265 0.0 0.0 0.00 0.00 0.00 938.8
20260503200338 12 265 0.0 0.0 0.00 0.00 0.00 74 1019.0
20260503200312 -17 279 0.0 0.0 0.00 0.00 0.00 938.8
20260503200307 12 265 0.0 0.0 0.00 0.00 0.00 74 1018.9
20260503200159 -17 265 0.0 0.0 0.00 0.00 0.00 938.8
20260503195918 -17 279 0.0 0.0 0.00 0.00 0.00 938.8
20260503195839 12 265 0.0 0.0 0.00 0.00 0.00 74 1019.0
20260503195734 12 265 0.0 0.0 0.00 0.00 0.00 74 1018.9
20260503195610 12 266 0.0 0.0 0.00 0.00 0.00 74 1019.0
20260503195510 12 265 0.0 0.0 0.00 0.00 0.00 74 1019.0
20260503195414 12 279 0.0 0.0 0.00 0.00 0.00 73 938.8
20260503195148 12 279 0.0 0.0 0.00 0.00 0.00 73 938.8
20260503195056 12 282 0.0 0.0 0.00 0.00 0.00 74 1018.9
20260503195004 12 279 0.0 0.0 0.00 0.00 0.00 74 1018.9
20260503194648 12 262 0.0 0.0 0.00 0.00 0.00 73 938.8
20260503194336 12 254 0.0 0.0 0.00 0.00 0.00 73 1019.0
20260503194243 13 243 0.0 0.0 0.00 0.00 0.00 75 1018.9
20260503194237 12 254 0.0 0.0 0.00 0.00 0.00 73 1018.9
20260503194227 13 243 0.0 0.0 0.00 0.00 0.00 74 1019.0
20260503194142 -17 243 0.0 0.0 0.00 0.00 0.00 938.8
20260503194114 12 276 0.0 0.0 0.00 0.00 0.00 74 1018.9
20260503193640 -17 243 0.0 0.0 0.00 0.00 0.00 938.8
20260503193236 13 243 0.0 0.0 0.00 0.00 0.00 75 1019.0
20260503193140 -17 243 0.0 0.0 0.00 0.00 0.00 938.9
20260503193017 -17 241 0.0 0.0 0.00 0.00 0.00 938.9
20260503192907 -17 241 0.0 0.0 0.00 0.00 0.00 938.9
20260503192833 13 241 0.0 0.0 0.00 0.00 0.00 75 1019.1
20260503192734 13 241 0.0 0.0 0.00 0.00 0.00 75 1019.0
20260503192353 -17 244 0.0 0.0 0.00 0.00 0.00 938.7
20260503192335 13 241 0.0 0.0 0.00 0.00 0.00 74 1019.0
20260503192240 -17 244 0.0 0.0 0.00 0.00 0.00 938.7
20260503192234 13 243 0.0 0.0 0.00 0.00 0.00 74 1019.1
20260503191833 13 243 0.0 0.0 0.00 0.00 0.00 74 1019.0
20260503191734 13 243 0.0 0.0 0.00 0.00 0.00 74 1019.0
20260503191634 -17 243 0.0 0.0 0.00 0.00 0.00 938.7
20260503191335 13 241 0.0 0.0 0.00 0.00 0.00 74 1018.9
20260503191235 13 243 0.0 0.0 0.00 0.00 0.00 74 1018.9
20260503191136 -17 243 0.0 0.0 0.00 0.00 0.00 938.7
20260503191038 13 241 0.0 0.0 0.00 0.00 0.00 74 1018.8
20260503191002 13 243 0.0 0.0 0.00 0.00 0.00 74 1018.8
20260503190853 13 262 0.0 0.0 0.00 0.00 0.00 75 938.6
20260503190737 13 262 0.0 0.0 0.00 0.00 0.00 75 938.6
20260503190334 13 295 0.0 0.0 0.00 0.00 0.00 74 1018.8
20260503190236 13 262 0.0 0.0 0.00 0.00 0.00 75 1018.8
20260503190122 13 262 0.0 0.0 0.00 0.00 0.00 75 938.6
20260503185832 13 262 0.0 0.0 0.00 0.00 0.00 75 1018.8
20260503185736 13 262 0.0 0.0 0.00 0.00 0.00 75 1018.8
20260503185624 13 264 0.0 0.0 0.00 0.00 0.00 75 938.6
20260503185615 13 269 0.0 0.0 0.00 0.00 0.00 75 1018.7
20260503185512 13 269 0.0 0.0 0.00 0.00 0.00 75 1018.7
20260503185123 13 265 0.0 0.0 0.00 0.00 0.00 75 938.5
20260503184848 13 259 0.0 0.0 0.00 0.00 0.00 75 938.5
20260503184833 13 261 0.0 0.0 0.00 0.00 0.00 75 1018.6
20260503184736 13 259 0.0 0.0 0.00 0.00 0.00 75 1018.7
20260503184623 13 259 0.0 0.0 0.00 0.00 0.00 75 938.5
20260503184335 13 254 0.0 0.0 0.00 0.00 0.00 75 1018.5
20260503184234 13 251 0.0 0.0 0.00 0.00 0.00 75 1018.6
20260503184123 13 279 0.0 0.0 0.00 0.00 0.00 75 938.3
20260503184048 13 255 0.0 1.6 0.00 0.00 0.00 75 1018.6
20260503184002 13 266 0.0 0.0 0.00 0.00 0.00 76 1018.5
20260503183620 13 265 0.0 0.0 0.00 0.00 0.00 76 938.3
20260503183334 13 290 0.0 1.6 0.00 0.00 0.00 76 1018.4
20260503183234 13 243 0.0 1.6 0.00 0.00 0.00 76 1018.5
20260503183116 13 252 0.0 0.0 0.00 0.00 0.00 76 938.3
20260503183042 13 189 0.0 3.2 0.00 0.00 0.00 76 1018.5
20260503183004 13 254 0.0 1.6 0.00 0.00 0.00 76 1018.5
20260503182618 -17 254 0.0 0.0 0.00 0.00 0.00 938.3
20260503182335 13 254 0.0 9.7 0.00 0.00 0.00 76 1018.3
20260503182234 13 252 0.0 9.7 0.00 0.00 0.00 76 1018.4
20260503182109 12 196 0.0 0.0 0.00 0.00 0.00 79 938.2
20260503181833 12 268 3.2 9.7 0.00 0.00 0.00 78 1018.4
20260503181733 12 275 1.6 9.7 0.00 0.00 0.00 78 1018.4
20260503181617 12 196 0.0 0.0 0.00 0.00 0.00 79 938.2
20260503181335 12 196 0.0 0.0 0.00 0.00 0.00 79 1018.4
20260503181237 12 145 0.0 0.0 0.00 0.00 0.00 79 1018.3
20260503181106 12 145 0.0 0.0 0.00 0.00 0.00 79 938.2
20260503180831 12 145 0.0 0.0 0.00 0.00 0.00 79 1018.3
20260503180732 12 145 0.0 0.0 0.00 0.00 0.00 79 1018.3
20260503180602 12 145 0.0 0.0 0.00 0.00 0.00 79 938.1
20260503180334 12 145 0.0 0.0 0.00 0.00 0.00 78 1018.3
20260503180323 13 145 0.0 0.0 0.00 0.00 0.00 78 938.2
20260503180234 12 145 0.0 0.0 0.00 0.00 0.00 78 1018.3
20260503180210 13 145 0.0 0.0 0.00 0.00 0.00 78 938.2
20260503175831 13 145 0.0 0.0 0.00 0.00 0.00 78 1018.3
20260503175731 13 145 0.0 0.0 0.00 0.00 0.00 78 1018.3
20260503175603 13 145 0.0 0.0 0.00 0.00 0.00 77 938.2
20260503175333 13 145 0.0 0.0 0.00 0.00 0.00 77 1018.2
20260503175232 13 145 0.0 0.0 0.00 0.00 0.00 77 1018.2
20260503175103 13 145 0.0 0.0 0.00 0.00 0.00 77 938.1
20260503174833 13 145 0.0 0.0 0.00 0.00 0.00 76 938.0
20260503174732 13 145 0.0 0.0 0.00 0.00 0.00 76 1018.1
20260503174601 13 145 0.0 0.0 0.00 0.00 0.00 76 938.0
20260503174334 13 145 0.0 0.0 0.00 0.00 0.00 76 1018.1
20260503174231 13 145 0.0 0.0 0.00 0.00 0.00 76 1018.2
20260503174104 13 145 0.0 0.0 0.00 0.00 0.00 76 938.1
20260503173832 13 145 0.0 0.0 0.00 0.00 0.00 75 1018.2
20260503173732 13 142 0.0 0.0 0.00 0.00 0.00 75 1018.2
20260503173601 13 145 0.0 0.0 0.00 0.00 0.00 75 938.0
20260503173333 13 145 0.0 0.0 0.00 0.00 0.00 74 1018.1
20260503173233 13 145 0.0 0.0 0.00 0.00 0.00 74 1018.2
20260503173101 13 144 0.0 0.0 0.00 0.00 0.00 73 938.0
20260503172836 14 145 0.0 0.0 0.00 0.00 0.00 73 938.0
20260503172834 13 144 0.0 0.0 0.00 0.00 0.00 74 1018.2
20260503172731 13 145 0.0 0.0 0.00 0.00 0.00 74 1018.2
20260503172712 14 145 0.0 0.0 0.00 0.00 0.00 73 938.0
20260503172331 14 145 0.0 0.0 0.00 0.00 0.00 73 1018.1
20260503172232 14 145 0.0 0.0 0.00 0.00 0.00 73 1018.1
20260503172103 14 145 0.0 0.0 0.00 0.00 0.00 72 938.0
20260503171831 14 144 0.0 0.0 0.00 0.00 0.00 72 1018.2
20260503171736 14 145 0.0 0.0 0.00 0.00 0.00 72 1018.1
20260503171602 14 145 0.0 0.0 0.00 0.00 0.00 72 937.9
20260503171331 14 145 0.0 0.0 0.00 0.00 0.00 72 1018.1
20260503171232 14 145 0.0 0.0 0.00 0.00 0.00 71 1018.0
20260503171103 15 144 0.0 0.0 0.00 0.00 0.00 71 937.9
20260503170846 15 145 0.0 0.0 0.00 0.00 0.00 70 1018.0
20260503170825 15 145 0.0 0.0 0.00 0.00 0.00 70 1018.0
20260503170603 15 145 0.0 0.0 0.00 0.00 0.00 70 937.8
20260503170501 15 145 0.0 0.0 0.00 0.00 0.00 70 1017.8
20260503170110 15 145 0.0 0.0 0.00 0.00 0.00 68 937.9
20260503160109 16 223 0.0 0.0 0.00 0.00 0.00 59 937.8
20260503150728 17 203 0.0 8.0 0.00 0.00 0.00 53 1018.1
20260503150558 17 204 0.0 8.0 0.00 0.00 0.00 53 938.0
20260503150332 18 200 0.0 0.0 0.00 0.00 0.00 51 937.9
20260503150305 18 202 0.0 0.0 0.00 0.00 0.00 49 1018.1
20260503150229 18 202 0.0 0.0 0.00 0.00 0.00 49 1018.1
20260503150216 18 200 0.0 0.0 0.00 0.00 0.00 51 937.9
20260503140304 20 172 0.0 0.0 0.00 0.00 0.00 46 1018.0
20260503140228 20 172 0.0 0.0 0.00 0.00 0.00 46 1018.0
20260503131228 19 217 0.0 0.0 0.00 0.00 0.00 46 1018.4
20260503131057 19 217 0.0 0.0 0.00 0.00 0.00 46 938.3
20260503131029 19 224 0.0 0.0 0.00 0.00 0.00 45 1018.4
20260503130951 19 185 0.0 0.0 0.00 0.00 0.00 45 1018.4
20260503130827 19 240 0.0 0.0 0.00 0.00 0.00 45 938.3
20260503130704 19 240 0.0 0.0 0.00 0.00 0.00 45 938.3
20260503130304 19 219 0.0 0.0 0.00 0.00 0.00 46 1018.5
20260503130227 19 219 0.0 0.0 0.00 0.00 0.00 46 1018.5
20260503130109 20 213 0.0 0.0 0.00 0.00 0.00 45 938.3
20260503120107 17 219 0.0 0.0 0.00 0.00 0.00 50 938.7
20260503110721 17 197 0.0 0.0 0.00 0.00 0.00 49 1019.0
20260503110554 17 202 0.0 0.0 0.00 0.00 0.00 49 938.9
20260503110224 17 220 0.0 8.0 0.00 0.00 0.00 50 1018.9
20260503110106 17 221 0.0 0.0 0.00 0.00 0.00 50 938.8
20260503100106 17 217 0.0 8.0 0.00 0.00 0.00 45 939.1
20260503090324 17 230 0.0 0.0 0.00 0.00 0.00 44 939.3
20260503090220 17 221 0.0 4.8 0.00 0.00 0.00 46 1019.5
20260503090210 17 230 0.0 0.0 0.00 0.00 0.00 44 939.3